• In Netherlands
  • List of Countries
  • For 7 days
  • Water Temperature
  • Satellite Maps
  • Weather Map
  • Weather Widgets
  • user-avatar
    Login

    Hourly Weather Zalaze

    Today, 28 May, Monday

    Time Temperature Precipitation Wind Pressure Humidity
    00:00 +14°C° 0 mm 1 mps 751 mmHg 74%
    01:00 +14°C° 0 mm 1 mps 752 mmHg 75%
    02:00 +14°C° 0 mm 1 mps 752 mmHg 76%
    03:00 +14°C° 0 mm 1 mps 752 mmHg 77%
    04:00 +14°C° 0 mm 1 mps 752 mmHg 78%
    05:00 +14°C° 0 mm 1 mps 752 mmHg 79%
    06:00 +16°C° 0 mm 1 mps 752 mmHg 74%
    07:00 +19°C° 0 mm 1 mps 753 mmHg 69%
    08:00 +22°C° 0 mm 1 mps 753 mmHg 64%
    09:00 +23°C° 0 mm 2 mps 753 mmHg 62%
    10:00 +24°C° 0 mm 2 mps 753 mmHg 59%
    11:00 +26°C° 0 mm 2 mps 753 mmHg 57%
    12:00 +26°C° 0.1 mm 2 mps 753 mmHg 57%
    13:00 +26°C° 0.1 mm 3 mps 753 mmHg 56%
    14:00 +26°C° 0.1 mm 3 mps 753 mmHg 56%
    15:00 +26°C° 0.1 mm 3 mps 753 mmHg 59%
    16:00 +25°C° 0.1 mm 3 mps 753 mmHg 61%
    17:00 +25°C° 0.1 mm 3 mps 753 mmHg 64%
    18:00 +22°C° 0 mm 3 mps 753 mmHg 71%
    19:00 +21°C° 0 mm 3 mps 753 mmHg 77%
    20:00 +19°C° 0 mm 2 mps 753 mmHg 84%
    21:00 +18°C° 0 mm 3 mps 753 mmHg 84%
    22:00 +17°C° 0 mm 3 mps 754 mmHg 84%
    23:00 +16°C° 0 mm 3 mps 754 mmHg 84%

    Tomorrow, 29 May, Tuesday

    Time Temperature Precipitation Wind Pressure Humidity
    00:00 +14°C° 0 mm 3 mps 754 mmHg 84%
    01:00 +13°C° 0 mm 3 mps 754 mmHg 84%
    02:00 +13°C° 0 mm 3 mps 754 mmHg 84%
    03:00 +13°C° 0 mm 3 mps 754 mmHg 86%
    04:00 +13°C° 0 mm 3 mps 754 mmHg 88%
    05:00 +14°C° 0 mm 2 mps 754 mmHg 90%
    06:00 +15°C° 0 mm 2 mps 754 mmHg 86%
    07:00 +17°C° 0 mm 3 mps 754 mmHg 82%
    08:00 +19°C° 0 mm 3 mps 754 mmHg 78%
    09:00 +21°C° 0 mm 2 mps 754 mmHg 73%
    10:00 +23°C° 0 mm 2 mps 754 mmHg 68%
    11:00 +25°C° 0 mm 2 mps 754 mmHg 62%
    12:00 +26°C° 0 mm 2 mps 753 mmHg 59%
    13:00 +26°C° 0 mm 2 mps 753 mmHg 56%
    14:00 +27°C° 0 mm 2 mps 752 mmHg 52%
    15:00 +27°C° 0 mm 2 mps 752 mmHg 54%
    16:00 +26°C° 0 mm 2 mps 751 mmHg 55%
    17:00 +26°C° 0 mm 2 mps 751 mmHg 57%
    18:00 +24°C° 0 mm 2 mps 750 mmHg 64%
    19:00 +23°C° 0 mm 2 mps 750 mmHg 72%
    20:00 +20°C° 0 mm 2 mps 750 mmHg 79%
    21:00 +19°C° 0 mm 2 mps 750 mmHg 82%
    22:00 +18°C° 0 mm 2 mps 750 mmHg 86%
    23:00 +17°C° 0 mm 2 mps 749 mmHg 89%

    Day after tomorrow, 30 May, Wednesday

    Time Temperature Precipitation Wind Pressure Humidity
    00:00 +17°C° 0 mm 2 mps 749 mmHg 90%
    01:00 +17°C° 0 mm 2 mps 749 mmHg 92%
    02:00 +16°C° 0 mm 2 mps 749 mmHg 93%
    03:00 +16°C° 0.1 mm 2 mps 749 mmHg 93%
    04:00 +16°C° 0.1 mm 2 mps 748 mmHg 93%
    05:00 +17°C° 0.1 mm 2 mps 748 mmHg 93%
    06:00 +18°C° 0 mm 2 mps 748 mmHg 87%
    07:00 +20°C° 0 mm 2 mps 747 mmHg 80%
    08:00 +23°C° 0 mm 2 mps 747 mmHg 74%
    09:00 +24°C° 0.2 mm 2 mps 747 mmHg 68%
    10:00 +26°C° 0.2 mm 2 mps 746 mmHg 62%
    11:00 +27°C° 0.2 mm 3 mps 746 mmHg 56%
    12:00 +27°C° 0.3 mm 3 mps 746 mmHg 55%
    13:00 +28°C° 0.3 mm 3 mps 745 mmHg 54%
    14:00 +28°C° 0.3 mm 3 mps 745 mmHg 53%
    15:00 +27°C° 0.4 mm 3 mps 745 mmHg 57%
    16:00 +27°C° 0.4 mm 3 mps 744 mmHg 61%
    17:00 +26°C° 0.4 mm 3 mps 744 mmHg 66%
    18:00 +25°C° 0.1 mm 3 mps 743 mmHg 71%
    19:00 +22°C° 0.1 mm 3 mps 743 mmHg 76%
    20:00 +21°C° 0.1 mm 2 mps 743 mmHg 81%
    21:00 +20°C° 0 mm 3 mps 742 mmHg 83%
    22:00 +19°C° 0 mm 3 mps 742 mmHg 85%
    23:00 +18°C° 0 mm 3 mps 742 mmHg 88%

    31 May, Thursday

    Time Temperature Precipitation Wind Pressure Humidity
    00:00 +17°C° 0 mm 3 mps 742 mmHg 89%
    01:00 +17°C° 0 mm 3 mps 742 mmHg 89%
    02:00 +16°C° 0 mm 3 mps 741 mmHg 90%
    03:00 +14°C° 0 mm 3 mps 742 mmHg 89%
    04:00 +14°C° 0 mm 3 mps 742 mmHg 88%
    05:00 +13°C° 0 mm 4 mps 742 mmHg 87%
    06:00 +14°C° 0 mm 4 mps 742 mmHg 79%
    07:00 +15°C° 0 mm 5 mps 742 mmHg 71%
    08:00 +15°C° 0 mm 5 mps 743 mmHg 63%
    09:00 +16°C° 0 mm 5 mps 743 mmHg 59%
    10:00 +17°C° 0 mm 6 mps 743 mmHg 54%
    11:00 +19°C° 0 mm 6 mps 743 mmHg 49%
    12:00 +19°C° 0 mm 6 mps 743 mmHg 49%
    13:00 +19°C° 0 mm 6 mps 743 mmHg 48%
    14:00 +20°C° 0 mm 6 mps 744 mmHg 48%
    15:00 +19°C° 0 mm 6 mps 744 mmHg 50%
    16:00 +19°C° 0 mm 5 mps 744 mmHg 53%
    17:00 +17°C° 0 mm 5 mps 744 mmHg 56%
    18:00 +16°C° 0 mm 5 mps 744 mmHg 58%
    19:00 +15°C° 0 mm 5 mps 745 mmHg 61%
    20:00 +13°C° 0 mm 4 mps 745 mmHg 64%
    21:00 +12°C° 0 mm 4 mps 745 mmHg 60%
    22:00 +10°C° 0 mm 5 mps 746 mmHg 56%
    23:00 +9°C° 0 mm 5 mps 746 mmHg 52%

    1 June, Friday

    Time Temperature Precipitation Wind Pressure Humidity
    00:00 +9°C° 0 mm 5 mps 746 mmHg 55%
    01:00 +8°C° 0 mm 4 mps 747 mmHg 57%
    02:00 +7°C° 0 mm 4 mps 747 mmHg 59%
    03:00 +6°C° 0 mm 4 mps 747 mmHg 62%
    04:00 +6°C° 0 mm 4 mps 747 mmHg 64%
    05:00 +5°C° 0 mm 4 mps 748 mmHg 67%
    06:00 +7°C° 0 mm 4 mps 748 mmHg 64%
    07:00 +10°C° 0 mm 4 mps 748 mmHg 60%
    08:00 +11°C° 0 mm 4 mps 749 mmHg 57%
    09:00 +12°C° 0 mm 5 mps 749 mmHg 53%
    10:00 +13°C° 0 mm 5 mps 749 mmHg 49%
    11:00 +14°C° 0 mm 5 mps 749 mmHg 45%
    12:00 +15°C° 0 mm 5 mps 749 mmHg 45%
    13:00 +15°C° 0 mm 5 mps 749 mmHg 44%
    14:00 +15°C° 0 mm 5 mps 749 mmHg 44%
    15:00 +15°C° 0 mm 5 mps 749 mmHg 46%
    16:00 +15°C° 0 mm 5 mps 749 mmHg 47%
    17:00 +15°C° 0 mm 4 mps 749 mmHg 49%
    18:00 +13°C° 0 mm 4 mps 750 mmHg 55%
    19:00 +12°C° 0 mm 3 mps 750 mmHg 62%
    20:00 +10°C° 0 mm 2 mps 750 mmHg 69%
    21:00 +9°C° 0 mm 2 mps 750 mmHg 70%
    22:00 +8°C° 0 mm 2 mps 751 mmHg 72%
    23:00 +7°C° 0 mm 2 mps 751 mmHg 74%

    2 June, Saturday

    Time Temperature Precipitation Wind Pressure Humidity
    00:00 +7°C° 0 mm 2 mps 751 mmHg 75%
    01:00 +6°C° 0 mm 2 mps 751 mmHg 76%
    02:00 +5°C° 0 mm 2 mps 751 mmHg 77%
    03:00 +5°C° 0 mm 2 mps 752 mmHg 76%
    04:00 +6°C° 0 mm 2 mps 752 mmHg 76%
    05:00 +6°C° 0 mm 2 mps 752 mmHg 75%
    06:00 +8°C° 0 mm 2 mps 752 mmHg 68%
    07:00 +10°C° 0 mm 3 mps 752 mmHg 62%
    08:00 +12°C° 0 mm 3 mps 753 mmHg 55%
    09:00 +13°C° 0 mm 3 mps 753 mmHg 52%
    10:00 +14°C° 0 mm 3 mps 752 mmHg 48%
    11:00 +15°C° 0 mm 4 mps 752 mmHg 45%
    12:00 +15°C° 0 mm 4 mps 752 mmHg 44%
    13:00 +17°C° 0 mm 4 mps 752 mmHg 44%
    14:00 +18°C° 0 mm 3 mps 751 mmHg 43%
    15:00 +18°C° 0 mm 3 mps 751 mmHg 45%
    16:00 +18°C° 0 mm 3 mps 751 mmHg 46%
    17:00 +18°C° 0 mm 3 mps 750 mmHg 48%
    18:00 +16°C° 0 mm 2 mps 750 mmHg 54%
    19:00 +14°C° 0 mm 1 mps 750 mmHg 61%
    20:00 +12°C° 0 mm 1 mps 750 mmHg 67%
    21:00 +12°C° 0 mm 1 mps 750 mmHg 69%
    22:00 +11°C° 0 mm 1 mps 750 mmHg 71%
    23:00 +10°C° 0 mm 1 mps 750 mmHg 72%
    Show more